User: anonymous   Login
Location: Anjeux
(47.8815°N, 6.2076°E)
Time: 22:03:30
(UTC+00:00)
Language:

ITUPSAT 1 - Orbit

View from above orbital plane
View from above orbital plane
View from above satellite
View from above satellite

Ground track
Ground track

The orbit data is extracted from the following two-line orbital elements,

1 35935U 09051E   21338.85084990  .00000195  00000-0  55730-4 0  9999
2 35935  98.5914 185.9742 0007198 305.0092  55.0428 14.55799024647561
Epoch (UTC): 04 December 2021 20:25:13
Eccentricity: 0.0007198
inclination: 98.5914°
perigee height: 701 km
apogee height: 712 km
right ascension of ascending node: 185.9742°
argument of perigee: 305.0092°
revolutions per day: 14.55799024
mean anomaly at epoch: 55.0428°
orbit number at epoch: 64756

The dashed part of the orbit path shows where the satellite is in the earth's shadow,  

DLR